Location: Barnston
(51.8500°N, 0.4000°E)
Time: 11:55:48
(UTC+00:00)

SL-16 R/B - Pass Details

Date: 26 September 2023
Orbit: 842 x 845 km, 71.0° (Epoch: 10 December)

Event Time Altitude Azimuth Distance (km) Brightness Sun altitude
Rises 05:00:11 0° 314° (NW) 3,413 5.0 -8.6°
Reaches altitude 10° 05:05:05 10° 277° (W) 2,471 4.0 -7.8°
Maximum altitude 05:06:05 11° 266° (W) 2,436 3.9 -7.6°
Drops below altitude 10° 05:07:05 10° 256° (WSW) 2,468 3.9 -7.5°
Sets 05:11:59 0° 219° (SW) 3,395 4.9 -6.7°
